Wind_Speed
10 10 12 16 15 12 13 19 24 23 15 24 33 18 27 35 44 31 40 38 46 44 36 32 31 35 32 30 29 33 37 42 51 50 48 48 49 38 32 31 26 26 29 23
10 10 15 14 17 19 19 22 23 20 20 23 19 18 12 22 26 26 45 40 47 42 47 35 38 38 30 33 36 35 43 47 47 51 50 45 36 31 29 28 21 15 14 16
15 14 13 20 19 19 20 22 21 21 22 19 20 20 12 18 20 35 35 29 34 46 52 43 43 36 31 35 37 42 44 49 50 47 43 39 34 27 22 22 21 19 19 23
15 15 16 17 19 20 23 22 22 21 22 26 16 16 16 17 24 7 9 37 54 54 46 43 39 35 34 35 37 41 43 45 42 39 37 33 30 26 24 24 23 21 23 27
14 15 17 18 20 20 22 24 25 20 20 22 19 13 21 35 33 24 32 44 50 52 46 42 41 35 31 32 37 39 41 43 41 37 36 32 30 30 27 26 25 26 27 27
18 17 18 19 20 22 25 26 25 21 18 23 21 18 25 29 31 29 36 47 47 39 38 40 37 32 27 28 31 35 39 43 41 38 35 34 32 29 27 28 28 27 25 25
22 19 21 21 23 25 25 23 23 22 18 18 27 28 30 30 28 32 39 38 38 37 37 39 37 30 29 31 30 32 39 43 44 42 39 37 36 33 31 31 31 28 27 24
24 23 21 22 24 22 23 23 21 19 21 23 22 20 33 29 23 36 42 40 39 34 38 38 35 24 26 31 35 36 39 44 45 45 43 38 35 34 34 33 30 29 29 29
27 22 23 23 21 23 24 23 19 17 10 11 3 6 31 38 18 27 42 34 33 33 38 39 23 22 24 30 36 38 41 43 46 44 42 35 37 37 35 31 31 29 27 27
28 26 23 22 21 25 27 25 23 16 16 15 20 16 16 21 26 21 12 37 47 34 41 36 23 23 28 33 34 37 38 45 47 48 44 39 33 34 35 29 27 27 27 30
27 26 25 23 24 26 30 24 24 26 20 17 18 17 16 20 13 9 27 40 33 36 38 27 24 26 32 31 32 35 36 41 45 45 45 45 41 36 32 24 24 24 24 26
30 29 27 27 26 25 26 24 35 31 20 17 23 23 20 22 32 40 39 43 39 40 38 28 25 27 30 30 33 33 34 37 39 42 45 45 39 35 29 23 21 24 24 27
33 29 29 30 30 26 26 29 27 29 26 20 20 30 33 13 16 35 49 41 35 42 42 37 33 32 30 31 33 32 30 33 36 39 40 42 40 37 29 22 22 26 32 43
34 30 29 31 32 30 29 29 26 24 25 26 20 17 24 22 16 21 41 43 36 40 43 42 37 35 31 30 31 31 31 31 32 35 37 40 40 39 39 33 29 33 38 44
34 31 32 31 33 32 32 34 30 27 27 20 21 20 19 22 7 8 43 37 38 47 42 38 37 40 36 31 29 33 31 30 33 34 37 39 39 40 40 40 41 38 37 39
35 36 32 32 33 31 32 32 31 30 27 20 19 21 20 17 12 18 24 35 41 55 41 38 36 34 29 28 31 33 33 32 33 36 38 39 40 42 43 43 45 47 46 45
38 37 33 31 34 33 33 21 20 39 31 21 27 26 22 17 28 30 39 53 55 59 41 36 33 33 33 34 33 35 36 37 36 37 38 38 42 45 46 47 50 52 53 52
40 38 34 34 35 32 32 21 20 32 34 33 38 37 21 15 21 23 35 50 47 49 42 36 37 38 38 37 35 37 37 39 42 42 42 41 43 47 48 51 53 56 59 61
41 39 36 33 29 26 33 11 19 39 33 39 37 29 33 24 29 45 51 57 54 49 42 39 38 41 38 38 37 40 40 41 43 46 47 47 48 49 51 54 57 60 62 64
40 40 35 31 22 25 10 12 28 43 42 34 26 22 35 33 43 40 40 65 56 52 48 47 42 43 43 43 42 44 45 44 46 48 52 52 53 54 56 58 61 63 65 68
41 25 49 26 30 34 16 21 36 42 40 31 26 27 37 48 47 53 54 47 46 46 48 48 51 49 46 46 45 47 48 49 51 53 55 57 58 59 60 64 66 67 69 72
43 38 28 30 28 27 21 23 24 27 28 26 26 30 35 39 41 41 39 38 38 41 44 50 52 57 52 54 49 50 52 55 57 57 60 62 62 62 63 65 70 71 71 72
42 39 27 28 27 35 34 28 29 29 33 30 28 32 36 38 37 36 34 30 28 27 27 53 54 54 49 50 53 53 55 58 62 64 63 64 65 66 66 69 73 74 72 72
37 24 29 39 47 44 38 33 29 37 36 34 34 34 34 34 36 36 36 31 25 27 43 47 49 53 53 50 52 55 58 61 64 68 68 71 72 72 67 69 74 77 76 76
36 32 18 43 43 34 34 36 37 39 38 41 38 39 37 37 38 40 41 41 40 36 36 39 44 48 53 54 54 57 60 63 65 69 74 78 79 77 75 78 80 81 79 80
44 44 46 45 45 43 46 42 41 41 40 40 39 43 43 42 43 43 45 47 48 48 49 50 50 50 53 59 69 66 64 63 65 66 71 70 79 77 79 80 82 82 81 80
Wind_Direction
291 296 308 310 311 311 284 273 271 288 274 290 308 316 340 313 322 306 319 319 324 335 328 324 321 325 329 327 317 309 310 315 308 311 312 313 313 317 317 318 319 278 279 274
295 307 293 302 301 301 299 301 308 313 308 307 313 315 327 294 297 297 317 302 312 331 328 324 323 323 321 324 317 317 318 313 315 315 313 313 314 316 321 322 326 308 286 284
286 289 277 300 301 305 308 311 313 316 320 318 314 312 294 291 293 313 303 296 316 323 323 323 323 320 310 313 317 320 317 318 318 319 318 317 317 319 311 320 319 303 289 297
298 296 295 301 306 312 315 315 310 316 320 330 322 324 322 270 307 310 336 322 312 314 317 318 322 320 314 315 320 320 323 323 327 330 329 327 325 327 323 319 317 307 296 296
307 305 305 311 314 316 313 307 306 312 329 320 306 292 318 309 301 251 296 308 313 314 310 319 321 317 313 318 324 330 333 337 336 335 339 334 331 332 329 325 317 306 302 303
313 308 310 313 311 312 310 304 301 301 301 318 289 302 292 286 296 288 291 314 306 313 314 318 317 318 321 319 326 329 335 340 340 342 343 342 335 330 328 327 327 324 318 315
313 308 309 314 315 322 314 309 307 298 276 272 271 301 299 291 286 287 302 308 326 327 322 320 318 318 322 328 330 334 344 348 349 352 350 348 344 335 328 328 330 326 328 328
305 307 304 310 318 322 315 312 311 298 294 277 278 295 295 303 286 278 303 313 310 326 326 322 314 316 330 334 337 345 351 352 350 350 349 352 350 343 334 330 332 328 329 324
302 302 299 307 315 318 327 326 313 307 309 297 226 277 310 284 281 302 314 309 321 326 321 324 308 317 331 342 342 346 351 352 353 357 354 350 348 345 338 335 332 333 327 324
304 302 299 299 306 312 325 326 315 302 300 278 262 268 250 280 267 354 300 300 301 318 316 317 303 309 326 335 339 345 351 350 357 359 356 354 352 347 340 334 331 332 324 326
301 296 302 295 301 315 318 315 328 316 295 258 250 260 244 299 272 202 236 302 298 309 312 314 311 314 318 329 339 343 348 351 357 5 2 4 359 352 354 351 340 337 343 344
300 299 297 300 304 305 319 309 318 324 310 267 239 237 224 278 275 266 280 293 303 301 307 303 306 314 320 332 335 340 347 350 358 3 2 7 1 356 358 6 359 356 356 350
297 298 294 298 302 301 306 312 316 321 315 309 258 227 228 284 333 294 291 289 298 305 308 304 298 306 315 326 328 335 341 345 353 356 1 3 9 358 340 334 332 321 319 325
294 296 298 300 303 305 309 311 316 316 318 320 277 255 235 238 241 289 304 289 290 294 299 304 298 301 307 316 322 330 334 337 343 348 355 359 360 4 6 359 335 321 315 311
293 292 301 305 303 311 313 315 319 314 321 314 281 256 233 235 123 145 295 287 291 292 290 298 300 301 303 308 317 322 327 332 336 342 345 347 352 356 355 351 355 350 345 342
291 291 299 305 301 305 306 312 309 318 316 293 296 268 250 231 212 218 291 296 287 285 283 294 295 303 301 304 311 313 319 325 331 333 336 338 343 343 347 348 347 345 342 341
293 295 298 302 303 304 303 319 236 307 306 306 298 291 264 223 244 262 269 286 274 279 282 292 287 294 300 302 307 310 316 320 323 329 330 331 333 335 336 338 338 338 340 338
293 295 293 302 305 304 298 306 303 293 269 292 308 304 293 251 261 295 243 238 283 285 283 286 295 295 295 294 300 306 311 313 316 319 327 329 326 328 329 331 330 331 333 334
291 291 293 299 299 297 300 275 301 276 274 289 303 306 318 291 254 263 278 285 283 278 282 285 292 297 294 290 296 301 305 308 311 316 320 322 323 326 327 328 325 326 327 328
291 296 299 290 295 289 284 286 266 263 294 298 304 329 320 304 280 273 292 279 272 274 280 283 288 293 294 292 293 296 302 308 309 312 315 317 320 322 324 324 323 323 323 325
289 300 287 291 298 286 289 242 254 272 291 297 298 295 281 287 294 281 277 274 278 275 280 286 288 291 292 293 290 293 300 306 308 309 311 313 315 319 321 321 322 321 321 324
281 276 283 283 302 283 295 288 288 294 298 296 290 289 289 292 297 298 294 291 287 286 291 287 285 288 292 295 296 299 304 306 305 306 308 311 313 316 318 318 318 319 321 321
277 278 259 251 238 274 272 283 294 301 302 304 308 306 304 306 312 312 314 312 300 290 274 294 291 286 290 294 297 299 302 302 304 306 308 308 310 313 315 315 317 320 320 318
276 277 270 258 256 263 274 279 293 294 299 300 309 313 312 313 314 314 315 317 307 288 284 294 293 295 298 298 299 301 302 303 305 305 307 309 311 314 315 314 315 317 316 315
260 240 298 263 257 271 285 280 289 288 294 301 307 309 312 316 320 320 320 319 315 306 298 296 300 303 303 304 305 305 304 304 307 307 308 308 311 313 314 314 314 314 314 314
258 245 245 259 258 253 263 273 282 287 288 295 305 305 308 312 312 317 320 320 318 317 316 314 312 310 312 318 318 310 306 305 306 306 309 309 306 312 317 316 310 309 311 312
Height
10949 10949 10950 10950 10948 10949 10949 10949 10949 10949 10945 10936 10933 10932 10938 10915 10924 10920 10915 10909 10902 10899 10894 10887 10881 10876 10871 10866 10862 10857 10852 10844 10837 10830 10823 10816 10808 10800 10794 10787 10781 10779 10781 10779
10946 10947 10946 10947 10946 10945 10945 10944 10943 10943 10940 10935 10932 10931 10931 10930 10919 10915 10909 10901 10895 10889 10890 10886 10878 10872 10868 10862 10857 10853 10845 10838 10829 10821 10814 10807 10801 10795 10788 10782 10778 10775 10774 10773
10944 10945 10944 10943 10943 10941 10939 10938 10937 10936 10934 10930 10924 10919 10918 10916 10917 10915 10893 10890 10888 10885 10887 10882 10872 10867 10862 10858 10852 10847 10839 10831 10821 10812 10804 10797 10792 10787 10783 10778 10774 10771 10769 10767
10942 10942 10941 10940 10938 10937 10936 10933 10931 10930 10926 10925 10920 10917 10915 10913 10915 10912 10895 10888 10883 10883 10878 10877 10871 10864 10858 10853 10847 10842 10835 10824 10815 10806 10797 10790 10784 10781 10776 10771 10768 10766 10763 10760
10940 10939 10938 10937 10936 10935 10932 10928 10926 10924 10923 10919 10915 10910 10911 10908 10909 10904 10901 10895 10886 10881 10876 10871 10865 10860 10857 10851 10843 10836 10828 10819 10810 10801 10792 10785 10781 10775 10771 10768 10764 10760 10757 10753
10936 10935 10934 10933 10932 10930 10927 10923 10920 10920 10918 10919 10913 10911 10909 10903 10897 10898 10894 10888 10884 10879 10872 10867 10862 10857 10853 10849 10843 10836 10826 10816 10806 10797 10789 10782 10774 10770 10766 10762 10758 10754 10750 10747
10932 10931 10930 10929 10928 10925 10920 10918 10915 10913 10912 10909 10906 10906 10903 10899 10894 10888 10888 10883 10875 10871 10867 10862 10858 10854 10849 10843 10839 10832 10823 10812 10801 10793 10784 10777 10769 10764 10760 10756 10752 10748 10745 10742
10928 10926 10925 10925 10923 10920 10916 10913 10911 10908 10909 10906 10904 10905 10898 10890 10886 10886 10878 10874 10870 10865 10862 10859 10854 10852 10847 10839 10832 10825 10818 10808 10798 10788 10779 10772 10765 10760 10754 10751 10747 10744 10741 10738
10925 10923 10920 10919 10917 10914 10912 10909 10905 10902 10903 10899 10898 10900 10896 10890 10885 10883 10879 10874 10867 10861 10858 10855 10852 10849 10844 10838 10830 10822 10813 10806 10797 10786 10777 10769 10763 10758 10753 10746 10742 10740 10739 10737
10919 10919 10917 10914 10911 10908 10907 10905 10900 10898 10898 10894 10888 10883 10883 10878 10883 10886 10870 10859 10865 10861 10857 10852 10849 10846 10841 10835 10828 10819 10811 10801 10792 10782 10773 10766 10760 10755 10748 10743 10740 10739 10738 10735
10914 10912 10912 10909 10907 10905 10901 10900 10897 10894 10890 10886 10882 10880 10879 10877 10881 10884 10875 10870 10864 10860 10856 10848 10846 10843 10837 10830 10823 10816 10808 10801 10791 10781 10773 10765 10757 10752 10746 10741 10740 10736 10735 10731
10909 10906 10904 10903 10903 10900 10896 10893 10889 10886 10885 10879 10876 10878 10877 10874 10878 10877 10875 10864 10858 10857 10852 10845 10842 10837 10832 10826 10819 10813 10806 10798 10790 10781 10773 10765 10758 10752 10747 10742 10739 10736 10732 10730
10903 10902 10899 10897 10897 10897 10894 10889 10886 10882 10877 10873 10871 10868 10870 10880 10887 10858 10863 10861 10855 10850 10846 10841 10836 10832 10827 10821 10815 10810 10803 10796 10788 10780 10773 10765 10757 10751 10747 10741 10737 10732 10728 10723
10897 10897 10894 10892 10890 10889 10888 10885 10881 10876 10871 10868 10866 10864 10864 10873 10880 10867 10864 10856 10849 10846 10841 10838 10830 10825 10821 10816 10811 10805 10799 10792 10785 10779 10771 10763 10755 10750 10746 10740 10735 10730 10724 10718
10891 10889 10889 10886 10883 10881 10879 10876 10874 10870 10866 10863 10861 10860 10865 10866 10873 10875 10840 10837 10839 10841 10837 10831 10824 10817 10813 10809 10805 10799 10794 10787 10781 10775 10769 10761 10754 10748 10741 10735 10730 10723 10717 10710
10884 10883 10883 10881 10879 10877 10874 10872 10868 10867 10863 10857 10855 10856 10863 10862 10858 10855 10843 10842 10842 10839 10832 10824 10817 10811 10806 10803 10798 10793 10788 10782 10776 10770 10764 10758 10751 10744 10737 10731 10724 10717 10710 10702
10878 10878 10878 10877 10874 10873 10869 10870 10866 10865 10861 10854 10848 10849 10856 10870 10859 10851 10845 10840 10831 10833 10824 10815 10809 10805 10800 10796 10792 10786 10781 10776 10770 10764 10758 10752 10745 10737 10730 10723 10716 10710 10703 10695
10874 10873 10870 10870 10868 10868 10862 10863 10859 10859 10852 10848 10842 10845 10856 10853 10853 10842 10832 10814 10809 10817 10813 10806 10801 10797 10793 10788 10784 10779 10775 10769 10762 10756 10750 10744 10737 10729 10722 10714 10707 10700 10692 10685
10864 10862 10862 10860 10859 10858 10854 10856 10849 10850 10846 10846 10840 10833 10835 10843 10842 10815 10802 10806 10806 10807 10802 10797 10793 10786 10783 10779 10776 10771 10766 10761 10754 10748 10742 10736 10729 10721 10713 10706 10698 10690 10682 10673
10855 10854 10854 10851 10850 10849 10852 10853 10847 10844 10844 10838 10829 10825 10823 10816 10826 10826 10820 10805 10800 10795 10790 10788 10786 10781 10774 10770 10767 10762 10757 10752 10746 10739 10732 10726 10718 10711 10704 10696 10687 10678 10670 10660
10848 10849 10853 10843 10842 10839 10845 10847 10838 10839 10840 10833 10824 10822 10820 10806 10802 10805 10799 10794 10789 10789 10787 10786 10778 10770 10766 10761 10757 10752 10748 10743 10735 10729 10722 10714 10707 10701 10693 10683 10675 10665 10656 10645
10838 10839 10843 10840 10833 10831 10836 10837 10836 10833 10827 10825 10820 10815 10810 10803 10795 10788 10783 10779 10782 10776 10773 10769 10766 10766 10758 10750 10745 10742 10737 10731 10723 10717 10709 10702 10695 10689 10683 10674 10664 10653 10642 10630
10829 10827 10829 10829 10819 10822 10824 10827 10826 10823 10818 10816 10811 10806 10802 10795 10788 10781 10776 10777 10776 10770 10772 10751 10750 10758 10754 10745 10737 10732 10727 10719 10710 10704 10698 10690 10682 10677 10670 10659 10650 10639 10628 10618
10823 10821 10819 10820 10815 10818 10822 10819 10818 10812 10810 10805 10802 10798 10792 10787 10782 10777 10772 10771 10774 10772 10761 10754 10753 10747 10737 10734 10728 10721 10714 10705 10698 10688 10682 10673 10667 10661 10656 10646 10637 10626 10615 10604
10813 10805 10812 10808 10809 10812 10803 10808 10807 10802 10799 10794 10791 10788 10783 10778 10774 10769 10764 10760 10758 10758 10755 10751 10744 10736 10727 10722 10719 10712 10704 10694 10687 10676 10666 10656 10650 10643 10636 10628 10619 10607 10597 10587
10795 10796 10795 10798 10798 10804 10802 10800 10796 10792 10789 10787 10783 10778 10772 10768 10763 10759 10754 10749 10744 10740 10736 10731 10728 10724 10720 10719 10711 10700 10691 10682 10674 10664 10656 10644 10630 10625 10621 10610 10601 10592 10583 10571